Earlysville, VA

5:39 PM EDT on August 27, 2016 (GMT -0400)
Charlottesville-Albemarle

Weather History for KCHO - December, 2013

Change the Weather History Date:

Wednesday, December 11, 2013

  Actual Average Record
Temperature  
Mean Temperature 35 °F 39 °F  
Max Temperature 44 °F 48 °F 70 °F (2015)
Min Temperature 26 °F 29 °F 7 °F (1917)
Degree Days  
Heating Degree Days 30 26  
Month to date heating degree days 245 274  
Since 1 July heating degree days 1188 1165  
Cooling Degree Days 0 0  
Month to date cooling degree days 18 0  
Year to date cooling degree days 1164 1035  
Moisture  
Dew Point 15 °F    
Average Humidity 41    
Maximum Humidity 52    
Minimum Humidity 30    
Precipitation  
Precipitation 0.00 in 0.12 in 1.54 in (2008)
Month to date precipitation 1.15 1.32  
Year to date precipitation 41.71 40.88  
Sea Level Pressure  
Sea Level Pressure 30.30 in    
Wind  
Wind Speed 5 mph (SSW)    
Max Wind Speed 12 mph    
Max Gust Speed 15 mph    
Visibility 10 miles    
Events      
T = Trace of Precipitation, MM = Missing Value Source: NWS Daily Summary

Daily Weather History Graph

Daily Weather History Graph

Search for Another Location

Airport or City:

Trip Planner

Search our weather history database for the weather conditions in past years. The results will help you decide how hot, cold, wet, or windy it might be!

Date:

Astronomy

Dec. 11, 2013 Rise Set
Actual Time 7:20 AM EST 4:54 PM EST
Civil Twilight 6:50 AM EST 5:23 PM EST
Nautical Twilight 6:17 AM EST 5:56 PM EST
Astronomical Twilight 5:45 AM EST 6:28 PM EST
Moon 1:22 PM EST (12/11) 1:43 AM EST (12/11)
Length of Visible Light 10h 32m
Length of Day
9h 33m
Waxing Gibbous, 71% of the Moon is Illuminated
Dec 11
Waxing Gibbous
Dec 17
Full
Dec 25
Last Quarter
Jan 1
New
Jan 7
First Quarter

Hourly Weather History & Observations

Time (EST) Temp. Windchill Dew Point Humidity Pressure Visibility Wind Dir Wind Speed Gust Speed Precip Events Conditions
12:53 AM 32.0 °F 28.7 °F 12.9 °F 45% 30.24 in 10.0 mi Variable 3.5 mph - N/A   Clear
1:53 AM 30.9 °F - 12.9 °F 47% 30.27 in 10.0 mi Calm Calm - N/A   Clear
2:53 AM 30.0 °F 25.2 °F 12.9 °F 49% 30.29 in 10.0 mi SSW 4.6 mph - N/A   Clear
3:53 AM 30.0 °F 25.2 °F 10.9 °F 45% 30.30 in 10.0 mi SW 4.6 mph - N/A   Clear
4:53 AM 30.9 °F 27.5 °F 10.9 °F 43% 30.33 in 10.0 mi SW 3.5 mph - N/A   Clear
5:53 AM 28.9 °F 22.8 °F 12.0 °F 49% 30.35 in 10.0 mi SSW 5.8 mph - N/A   Clear
6:53 AM 28.9 °F 23.9 °F 12.0 °F 49% 30.38 in 10.0 mi SW 4.6 mph - N/A   Clear
7:53 AM 28.0 °F - 12.9 °F 53% 30.38 in 10.0 mi Calm Calm - N/A   Clear
8:53 AM 32.0 °F 27.5 °F 14.0 °F 48% 30.39 in 10.0 mi SW 4.6 mph - N/A   Clear
9:53 AM 35.1 °F 31.0 °F 14.0 °F 42% 30.40 in 10.0 mi Variable 4.6 mph - N/A   Clear
10:53 AM 37.0 °F 32.4 °F 12.9 °F 37% 30.38 in 10.0 mi SW 5.8 mph - N/A   Clear
11:53 AM 39.9 °F 33.4 °F 16.0 °F 38% 30.34 in 10.0 mi South 10.4 mph - N/A   Clear
12:53 PM 41.0 °F 39.0 °F 12.9 °F 32% 30.30 in 10.0 mi Variable 3.5 mph - N/A   Clear
1:53 PM 43.0 °F 39.5 °F 15.1 °F 32% 30.27 in 10.0 mi SW 5.8 mph - N/A   Clear
2:53 PM 43.0 °F 36.8 °F 18.0 °F 37% 30.26 in 10.0 mi South 11.5 mph - N/A   Clear
3:53 PM 43.0 °F 38.8 °F 18.0 °F 37% 30.24 in 10.0 mi SSW 6.9 mph - N/A   Clear
4:53 PM 36.0 °F 29.6 °F 19.9 °F 52% 30.24 in 10.0 mi South 8.1 mph - N/A   Clear
5:53 PM 39.0 °F 35.7 °F 18.0 °F 43% 30.25 in 10.0 mi SW 4.6 mph - N/A   Clear
6:53 PM 37.0 °F 34.5 °F 19.0 °F 48% 30.25 in 10.0 mi SSW 3.5 mph - N/A   Clear
7:53 PM 36.0 °F 31.1 °F 19.0 °F 50% 30.25 in 10.0 mi South 5.8 mph - N/A   Clear
8:53 PM 35.1 °F 31.0 °F 19.0 °F 52% 30.25 in 10.0 mi South 4.6 mph - N/A   Clear
9:53 PM 34.0 °F 27.2 °F 18.0 °F 52% 30.25 in 10.0 mi South 8.1 mph - N/A   Clear
10:53 PM 34.0 °F - 17.1 °F 50% 30.25 in 10.0 mi Calm Calm - N/A   Clear
11:53 PM 39.0 °F 36.8 °F 14.0 °F 36% 30.25 in 10.0 mi Variable 3.5 mph - N/A   Clear